TimeEST,TemperatureF,Dew PointF,Humidity,Sea Level PressureIn,VisibilityMPH,Wind Direction,Wind SpeedMPH,Gust SpeedMPH,PrecipitationIn,Events,Conditions,WindDirDegrees,DateUTC
12:51 AM,37.9,26.1,62,30.43,10.0,North,6.9,-,N/A,,Overcast,10,2012-12-13 05:51:00
1:51 AM,36.0,27.0,70,30.43,10.0,North,4.6,-,N/A,,Mostly Cloudy,10,2012-12-13 06:51:00
2:51 AM,35.1,27.0,72,30.43,10.0,North,4.6,-,N/A,,Mostly Cloudy,10,2012-12-13 07:51:00
3:51 AM,36.0,27.0,70,30.43,10.0,North,5.8,-,N/A,,Overcast,360,2012-12-13 08:51:00
4:51 AM,37.0,28.0,70,30.43,10.0,NNE,6.9,-,N/A,,Overcast,20,2012-12-13 09:51:00
5:51 AM,36.0,28.0,73,30.44,10.0,North,5.8,-,N/A,,Overcast,360,2012-12-13 10:51:00
6:51 AM,36.0,27.0,70,30.48,10.0,Calm,Calm,-,N/A,,Mostly Cloudy,0,2012-12-13 11:51:00
7:51 AM,34.0,27.0,75,30.47,10.0,North,5.8,-,N/A,,Mostly Cloudy,350,2012-12-13 12:51:00
8:51 AM,39.0,30.0,70,30.46,10.0,North,6.9,-,N/A,,Scattered Clouds,10,2012-12-13 13:51:00
9:51 AM,43.0,25.0,49,30.47,10.0,North,8.1,-,N/A,,Partly Cloudy,10,2012-12-13 14:51:00
10:51 AM,45.0,23.0,42,30.47,10.0,NNE,11.5,-,N/A,,Partly Cloudy,20,2012-12-13 15:51:00
11:51 AM,45.0,23.0,42,30.44,10.0,NNE,5.8,-,N/A,,Scattered Clouds,20,2012-12-13 16:51:00
12:51 PM,46.9,24.1,41,30.42,10.0,North,8.1,-,N/A,,Scattered Clouds,350,2012-12-13 17:51:00
1:51 PM,46.9,25.0,42,30.40,10.0,NNW,8.1,-,N/A,,Partly Cloudy,330,2012-12-13 18:51:00
2:51 PM,46.0,21.0,37,30.40,10.0,North,3.5,-,N/A,,Partly Cloudy,360,2012-12-13 19:51:00
3:51 PM,44.1,21.0,40,30.39,10.0,Calm,Calm,-,N/A,,Partly Cloudy,0,2012-12-13 20:51:00
4:51 PM,42.1,21.0,43,30.39,10.0,Calm,Calm,-,N/A,,Partly Cloudy,0,2012-12-13 21:51:00
6:51 PM,39.9,23.0,51,30.39,10.0,SE,3.5,-,N/A,,Partly Cloudy,140,2012-12-13 23:51:00
7:51 PM,37.9,24.1,57,30.37,10.0,Calm,Calm,-,N/A,,Partly Cloudy,0,2012-12-14 00:51:00
8:51 PM,37.9,24.1,57,30.37,10.0,Calm,Calm,-,N/A,,Partly Cloudy,0,2012-12-14 01:51:00
9:51 PM,36.0,26.1,67,30.36,10.0,Calm,Calm,-,N/A,,Partly Cloudy,0,2012-12-14 02:51:00
10:51 PM,34.0,24.1,67,30.35,10.0,Calm,Calm,-,N/A,,Partly Cloudy,0,2012-12-14 03:51:00
11:51 PM,34.0,25.0,70,30.34,10.0,Calm,Calm,-,N/A,,Partly Cloudy,0,2012-12-14 04:51:00